Notices

What's New in latest Release from April 7th, 2021:

- Updated Glossary, including Speed of Maximum Gust, and Total Hourly Precipitation

- Updated national and regional climate services offices contacts and prices information

- Addition of station inventory lists for 1981-2010, 1971-2000, and 1961-1990 Normals.

If you haven't already, please take our survey and provide feedback about our website: https://eccc.sondage-survey.ca/f/LanguageSelection.aspx?s=442ca660-fcf1-47c0-95a9-59707d6fd709

Hourly Data Report for April 07, 2021

WIARTON A
ONTARIO
Current Station Operator: NAVCAN

44°44'39.000" N
81°06'31.000" W
221.90 m
6119499
71633
YVV

Download Data

Hourly Data (April 2021)
Hourly Data Report for April 7, 2021
TIME
LST
Temp Definition
°C
Dew Point Definition
°C
Rel Hum Definition
%
Precip. Amount Definition
mm

Wind Dir Definition
10's deg

Wind Spd Definition
km/h
Visibility Definition
km
Stn Press Definition
kPa
Hmdx Definition


Wind Chill Definition


Weather Definition


00:00 4.2 3.6 96   36 3 24.1 98.74     LegendNANA
01:00 5.1 3.3 88   7 4 24.1 98.75     Clear
02:00 5.1 3.0 86   8 4 24.1 98.74     LegendNANA
03:00 4.2 3.5 95   2 4 24.1 98.76     LegendNANA
04:00 3.6 3.1 97   11 4 24.1 98.79     Clear
05:00 3.4 2.6 94   4 4 24.1 98.80     LegendNANA
06:00 3.6 2.7 94   35 4 24.1 98.84     LegendNANA
07:00 5.5 4.1 91   4 4 24.1 98.89     Mostly Cloudy
08:00 6.6 4.6 87   36 3 24.1 98.90     LegendNANA
09:00 8.9 4.6 74   33 7 24.1 98.92     LegendNANA
10:00 11.7 5.1 64   36 5 24.1 98.93     Mostly Cloudy
11:00 13.0 4.4 56   1 7 24.1 98.90     LegendNANA
12:00 14.1 4.5 52   36 8 24.1 98.85     LegendNANA
13:00 16.7 5.8 48   1 9 24.1 98.78     Mainly Clear
14:00 20.8 7.5 42   11 14 24.1 98.73     LegendNANA
15:00 20.7 6.1 38   8 18 24.1 98.70     LegendNANA
16:00 20.8 6.2 38   10 22 24.1 98.66     Mostly Cloudy
17:00 20.2 5.8 39   9 18 24.1 98.65     LegendNANA
18:00 16.4 5.7 49   36 3 24.1 98.65     LegendNANA
19:00 13.0 4.8 57   11 3 24.1 98.65     Mainly Clear
20:00 16.8 4.0 42   14 21 24.1 98.70     LegendNANA
21:00 15.4 3.1 43   14 20 24.1 98.72     LegendNANA
22:00 13.7 2.3 46   14 17 24.1 98.71     Mainly Clear
23:00 13.0 2.3 48   13 17 24.1 98.67     LegendNANA

Notes on Data Quality.

Legend

  • E = Estimated
  • M = Missing
  • NA = Not Available*
  • [empty] = Indicates an unobserved value
Date modified: